AUA726 LYBE-LOWW

Flight info

Callsign AUA726
Flight time 0h 54m
Altitude 34000
Route TISAK DCT PARAK DCT BALUX DCT TORNO DCT NATEX NATEX2W
Aircraft A320/M-SDE3FGHIRWY/LB1

Departure

Time 2026-04-24 01:31
Airport Belgrade Nikola Tesla Airport (LYBE)

Arrival

Time 2026-04-24 02:26
Airport Vienna International Airport (LOWW)
Time Latitude Longitude Altitude Speed Heading
2026-04-24 01:14 44.82096 20.29227 307 ft 0 kts 212°
2026-04-24 01:24 44.82096 20.29228 307 ft 1 kts 212°
2026-04-24 01:24 44.82117 20.29245 306 ft 4 kts 208°
2026-04-24 01:24 44.82142 20.29261 306 ft 4 kts 198°
2026-04-24 01:24 44.82167 20.29267 308 ft 4 kts 163°
2026-04-24 01:25 44.82179 20.29257 307 ft 0 kts 122°
2026-04-24 01:26 44.82158 20.29304 307 ft 14 kts 122°
2026-04-24 01:27 44.82106 20.29419 309 ft 13 kts 122°
2026-04-24 01:27 44.82098 20.29524 307 ft 11 kts 51°
2026-04-24 01:27 44.82099 20.29627 308 ft 15 kts 120°
2026-04-24 01:27 44.82023 20.29802 307 ft 26 kts 121°
2026-04-24 01:28 44.81920 20.30033 308 ft 29 kts 121°
2026-04-24 01:28 44.81813 20.30276 309 ft 30 kts 122°
2026-04-24 01:28 44.81706 20.30511 308 ft 29 kts 122°
2026-04-24 01:28 44.81598 20.30754 307 ft 28 kts 121°
2026-04-24 01:29 44.81492 20.30994 306 ft 29 kts 122°
2026-04-24 01:29 44.81382 20.31241 306 ft 30 kts 122°
2026-04-24 01:29 44.81281 20.31475 306 ft 28 kts 122°
2026-04-24 01:29 44.81172 20.31713 310 ft 30 kts 123°
2026-04-24 01:30 44.81070 20.31941 308 ft 25 kts 121°
2026-04-24 01:30 44.81002 20.32104 307 ft 18 kts 119°
2026-04-24 01:30 44.81007 20.32236 308 ft 13 kts 51°
2026-04-24 01:30 44.81063 20.32218 304 ft 11 kts 303°
2026-04-24 01:31 44.81196 20.31913 306 ft 72 kts 302°
2026-04-24 01:31 44.81577 20.31058 305 ft 132 kts 302°
2026-04-24 01:31 44.82145 20.29806 524 ft 156 kts 301°
2026-04-24 01:31 44.82716 20.28551 1321 ft 150 kts 307°
2026-04-24 01:32 44.83565 20.27759 1909 ft 154 kts 346°
2026-04-24 01:32 44.84669 20.27491 2404 ft 167 kts 350°
2026-04-24 01:32 44.85845 20.27227 2951 ft 175 kts 351°
2026-04-24 01:32 44.87091 20.26957 3459 ft 187 kts 351°
2026-04-24 01:33 44.88412 20.26680 3878 ft 204 kts 351°
2026-04-24 01:33 44.89884 20.26374 4367 ft 223 kts 351°
2026-04-24 01:33 44.91451 20.26033 5123 ft 228 kts 349°
2026-04-24 01:33 44.93018 20.25654 5995 ft 232 kts 349°
2026-04-24 01:34 44.94601 20.25252 6885 ft 231 kts 348°
2026-04-24 01:34 44.96225 20.24834 7533 ft 241 kts 349°
2026-04-24 01:34 44.97886 20.24437 8411 ft 243 kts 350°
2026-04-24 01:34 44.99560 20.24041 9258 ft 245 kts 350°
2026-04-24 01:35 45.01252 20.23638 10085 ft 248 kts 351°
2026-04-24 01:35 45.02960 20.23234 10852 ft 250 kts 351°
2026-04-24 01:35 45.04682 20.22825 11629 ft 252 kts 351°
2026-04-24 01:35 45.06465 20.22679 12135 ft 266 kts 359°
2026-04-24 01:36 45.08367 20.22670 12669 ft 277 kts 359°
2026-04-24 01:36 45.10310 20.22678 13392 ft 281 kts 359°
2026-04-24 01:36 45.12278 20.22690 14115 ft 284 kts 359°
2026-04-24 01:36 45.14264 20.22700 14789 ft 287 kts 359°
2026-04-24 01:37 45.16273 20.22708 15469 ft 289 kts 359°
2026-04-24 01:37 45.18267 20.22712 16147 ft 291 kts 359°
2026-04-24 01:37 45.20303 20.22712 16821 ft 294 kts 359°
2026-04-24 01:37 45.22355 20.22714 17493 ft 296 kts 359°
2026-04-24 01:38 45.24430 20.22716 18157 ft 299 kts 359°
2026-04-24 01:38 45.26519 20.22718 18746 ft 302 kts 359°
2026-04-24 01:38 45.28625 20.22721 19320 ft 304 kts 359°
2026-04-24 01:38 45.30748 20.22724 19900 ft 306 kts 359°
2026-04-24 01:39 45.32886 20.22725 20480 ft 308 kts 359°
2026-04-24 01:39 45.35043 20.22726 21059 ft 311 kts 359°
2026-04-24 01:39 45.37212 20.22726 21629 ft 313 kts 360°
2026-04-24 01:39 45.39394 20.22727 22227 ft 314 kts 360°
2026-04-24 01:40 45.41589 20.22730 22792 ft 316 kts 359°
2026-04-24 01:40 45.43805 20.22473 23127 ft 326 kts 354°
2026-04-24 01:40 45.46107 20.22074 23270 ft 340 kts 354°
2026-04-24 01:40 45.48502 20.21643 23386 ft 354 kts 354°
2026-04-24 01:41 45.50986 20.21190 23647 ft 363 kts 354°
2026-04-24 01:41 45.53475 20.20735 24034 ft 367 kts 354°
2026-04-24 01:41 45.56017 20.20278 24458 ft 369 kts 354°
2026-04-24 01:41 45.58574 20.19823 24900 ft 371 kts 354°
2026-04-24 01:42 45.61143 20.19368 25364 ft 372 kts 354°
2026-04-24 01:42 45.63722 20.18911 25781 ft 374 kts 354°
2026-04-24 01:42 45.66308 20.18450 26177 ft 376 kts 354°
2026-04-24 01:42 45.68907 20.17987 26572 ft 378 kts 354°
2026-04-24 01:43 45.71521 20.17523 26956 ft 379 kts 354°
2026-04-24 01:43 45.74148 20.17055 27330 ft 381 kts 354°
2026-04-24 01:43 45.76789 20.16583 27710 ft 383 kts 354°
2026-04-24 01:43 45.79443 20.16104 28084 ft 385 kts 354°
2026-04-24 01:44 45.82109 20.15620 28463 ft 387 kts 354°
2026-04-24 01:44 45.84787 20.15132 28821 ft 389 kts 354°
2026-04-24 01:44 45.87477 20.14644 29160 ft 391 kts 354°
2026-04-24 01:44 45.90187 20.14157 29508 ft 393 kts 354°
2026-04-24 01:45 45.92904 20.13668 29837 ft 395 kts 354°
2026-04-24 01:45 45.95637 20.13176 30108 ft 397 kts 354°
2026-04-24 01:45 45.98351 20.12686 30354 ft 399 kts 354°
2026-04-24 01:45 46.01145 20.12178 30636 ft 400 kts 354°
2026-04-24 01:46 46.03877 20.11679 30906 ft 401 kts 354°
2026-04-24 01:46 46.06651 20.11175 31172 ft 402 kts 354°
2026-04-24 01:46 46.09432 20.10672 31414 ft 403 kts 354°
2026-04-24 01:46 46.12214 20.10173 31756 ft 402 kts 354°
2026-04-24 01:47 46.14980 20.09546 32112 ft 402 kts 349°
2026-04-24 01:47 46.17641 20.08290 32463 ft 404 kts 340°
2026-04-24 01:47 46.20146 20.06420 32803 ft 406 kts 335°
2026-04-24 01:47 46.22609 20.04433 33140 ft 405 kts 335°
2026-04-24 01:48 46.25067 20.02455 33476 ft 404 kts 335°
2026-04-24 01:48 46.27527 20.00484 33802 ft 403 kts 335°
2026-04-24 01:48 46.29988 19.98515 34002 ft 403 kts 335°
2026-04-24 01:49 46.34808 19.94644 34033 ft 391 kts 335°
2026-04-24 01:49 46.39520 19.90847 34041 ft 390 kts 335°
2026-04-24 01:50 46.44259 19.87028 34037 ft 390 kts 335°
2026-04-24 01:50 46.48994 19.83188 34035 ft 390 kts 335°
2026-04-24 01:51 46.53728 19.79345 34040 ft 390 kts 335°
2026-04-24 01:51 46.58464 19.75495 34007 ft 390 kts 336°
2026-04-24 01:52 46.63192 19.71648 34016 ft 389 kts 336°
2026-04-24 01:52 46.67922 19.67786 34017 ft 389 kts 336°
2026-04-24 01:53 46.72645 19.63917 34012 ft 389 kts 335°
2026-04-24 01:53 46.77370 19.60043 34029 ft 389 kts 335°
2026-04-24 01:54 46.82093 19.56168 34024 ft 389 kts 335°
2026-04-24 01:54 46.86816 19.52282 33996 ft 389 kts 336°
2026-04-24 01:55 46.91535 19.48396 34004 ft 389 kts 336°
2026-04-24 01:55 46.96248 19.44504 34015 ft 389 kts 335°
2026-04-24 01:56 47.00968 19.40593 34020 ft 389 kts 336°
2026-04-24 01:56 47.05678 19.36688 34023 ft 389 kts 336°
2026-04-24 01:57 47.10361 19.32797 34024 ft 389 kts 336°
2026-04-24 01:57 47.15078 19.28872 33992 ft 389 kts 336°
2026-04-24 01:58 47.19794 19.24942 34001 ft 389 kts 336°
2026-04-24 01:58 47.24500 19.20995 34006 ft 389 kts 336°
2026-04-24 01:59 47.29205 19.17034 33923 ft 389 kts 336°
2026-04-24 01:59 47.31485 19.14936 33645 ft 388 kts 329°
2026-04-24 01:59 47.33489 19.12306 33375 ft 393 kts 319°
2026-04-24 01:59 47.35172 19.09097 33103 ft 400 kts 309°
2026-04-24 02:00 47.36458 19.05429 32835 ft 405 kts 302°
2026-04-24 02:00 47.37628 19.01662 32551 ft 403 kts 302°
2026-04-24 02:00 47.38418 18.99130 32368 ft 402 kts 302°
2026-04-24 02:00 47.39589 18.95391 32108 ft 400 kts 302°
2026-04-24 02:01 47.40738 18.91724 31860 ft 398 kts 302°
2026-04-24 02:01 47.41893 18.88026 31606 ft 396 kts 302°
2026-04-24 02:01 47.43045 18.84335 31348 ft 394 kts 302°
2026-04-24 02:01 47.44183 18.80674 31096 ft 392 kts 302°
2026-04-24 02:02 47.45327 18.76993 30390 ft 396 kts 302°
2026-04-24 02:02 47.46476 18.73296 29886 ft 393 kts 302°
2026-04-24 02:02 47.47608 18.69640 29429 ft 388 kts 301°
2026-04-24 02:02 47.48720 18.66035 28982 ft 383 kts 301°
2026-04-24 02:03 47.50901 18.58965 28173 ft 373 kts 301°
2026-04-24 02:03 47.51971 18.55491 27750 ft 369 kts 301°
2026-04-24 02:03 47.53029 18.52051 27335 ft 366 kts 301°
2026-04-24 02:04 47.54042 18.48613 26922 ft 365 kts 296°
2026-04-24 02:04 47.54827 18.45034 26483 ft 365 kts 294°
2026-04-24 02:04 47.55588 18.41466 26049 ft 362 kts 294°
2026-04-24 02:04 47.56343 18.37917 25599 ft 361 kts 294°
2026-04-24 02:05 47.57096 18.34378 25155 ft 359 kts 294°
2026-04-24 02:05 47.57844 18.30861 24690 ft 358 kts 294°
2026-04-24 02:05 47.58583 18.27399 24206 ft 356 kts 294°
2026-04-24 02:05 47.59329 18.23906 23755 ft 355 kts 294°
2026-04-24 02:06 47.60071 18.20412 23241 ft 354 kts 294°
2026-04-24 02:06 47.60805 18.16940 22769 ft 352 kts 294°
2026-04-24 02:06 47.61530 18.13490 22306 ft 350 kts 294°
2026-04-24 02:06 47.62249 18.10059 21846 ft 348 kts 293°
2026-04-24 02:07 47.62964 18.06638 21398 ft 346 kts 293°
2026-04-24 02:07 47.63674 18.03241 20945 ft 344 kts 294°
2026-04-24 02:07 47.64384 17.99861 20508 ft 343 kts 294°
2026-04-24 02:07 47.65090 17.96494 20074 ft 341 kts 293°
2026-04-24 02:08 47.65792 17.93138 19635 ft 340 kts 293°
2026-04-24 02:08 47.66492 17.89790 19190 ft 339 kts 293°
2026-04-24 02:08 47.67189 17.86449 18773 ft 339 kts 293°
2026-04-24 02:08 47.67883 17.83111 18334 ft 338 kts 293°
2026-04-24 02:09 47.68577 17.79770 17878 ft 338 kts 293°
2026-04-24 02:09 47.69267 17.76448 17325 ft 335 kts 293°
2026-04-24 02:09 47.69937 17.73197 16917 ft 323 kts 293°
2026-04-24 02:09 47.70583 17.70052 16515 ft 312 kts 293°
2026-04-24 02:10 47.71206 17.67015 16129 ft 303 kts 293°
2026-04-24 02:10 47.71812 17.64064 15758 ft 294 kts 293°
2026-04-24 02:10 47.72400 17.61195 15397 ft 289 kts 293°
2026-04-24 02:10 47.72984 17.58347 15040 ft 288 kts 292°
2026-04-24 02:11 47.73566 17.55512 14676 ft 287 kts 292°
2026-04-24 02:11 47.74144 17.52704 14323 ft 288 kts 292°
2026-04-24 02:11 47.74542 17.49750 13953 ft 295 kts 279°
2026-04-24 02:11 47.74471 17.46613 13541 ft 311 kts 269°
2026-04-24 02:12 47.74241 17.43414 13142 ft 312 kts 269°
2026-04-24 02:12 47.74012 17.40205 12748 ft 311 kts 269°
2026-04-24 02:12 47.73786 17.37014 12356 ft 310 kts 269°
2026-04-24 02:12 47.73560 17.33824 11962 ft 309 kts 269°
2026-04-24 02:13 47.73335 17.30650 11575 ft 309 kts 269°
2026-04-24 02:13 47.73110 17.27504 11289 ft 301 kts 269°
2026-04-24 02:13 47.72889 17.24491 10979 ft 287 kts 269°
2026-04-24 02:13 47.72676 17.21568 10496 ft 283 kts 269°
2026-04-24 02:14 47.72465 17.18662 10105 ft 284 kts 269°
2026-04-24 02:14 47.72253 17.15748 9713 ft 284 kts 269°
2026-04-24 02:14 47.72042 17.12852 9413 ft 279 kts 269°
2026-04-24 02:14 47.71837 17.10049 9021 ft 273 kts 269°
2026-04-24 02:15 47.71800 17.07284 8660 ft 265 kts 282°
2026-04-24 02:15 47.72238 17.04681 8321 ft 256 kts 297°
2026-04-24 02:15 47.73078 17.02409 8009 ft 247 kts 310°
2026-04-24 02:15 47.74145 17.00447 7700 ft 241 kts 312°
2026-04-24 02:16 47.75195 16.98527 7403 ft 238 kts 311°
2026-04-24 02:16 47.76229 16.96628 7099 ft 234 kts 311°
2026-04-24 02:16 47.77222 16.94794 6888 ft 218 kts 311°
2026-04-24 02:16 47.78126 16.93113 6708 ft 200 kts 311°
2026-04-24 02:17 47.78979 16.91533 6353 ft 193 kts 311°
2026-04-24 02:17 47.79812 16.89996 6052 ft 193 kts 311°
2026-04-24 02:17 47.80650 16.88452 5795 ft 191 kts 311°
2026-04-24 02:17 47.81483 16.86916 5548 ft 190 kts 311°
2026-04-24 02:18 47.82311 16.85383 5310 ft 190 kts 311°
2026-04-24 02:18 47.83136 16.83855 5078 ft 189 kts 311°
2026-04-24 02:18 47.83980 16.82290 4988 ft 196 kts 311°
2026-04-24 02:18 47.84799 16.80773 4991 ft 180 kts 311°
2026-04-24 02:19 47.85551 16.79379 5025 ft 164 kts 311°
2026-04-24 02:19 47.86260 16.78064 4870 ft 161 kts 311°
2026-04-24 02:19 47.86956 16.76772 4655 ft 160 kts 312°
2026-04-24 02:19 47.87656 16.75475 4433 ft 160 kts 313°
2026-04-24 02:20 47.88352 16.74183 4230 ft 160 kts 313°
2026-04-24 02:20 47.89051 16.72881 4061 ft 161 kts 313°
2026-04-24 02:20 47.89752 16.71578 4002 ft 161 kts 313°
2026-04-24 02:20 47.90453 16.70275 4001 ft 162 kts 313°
2026-04-24 02:21 47.91147 16.68982 4006 ft 162 kts 313°
2026-04-24 02:21 47.91849 16.67674 4006 ft 161 kts 313°
2026-04-24 02:21 47.92584 16.66427 4004 ft 159 kts 322°
2026-04-24 02:21 47.93562 16.65693 3803 ft 158 kts 342°
2026-04-24 02:22 47.94609 16.65190 3561 ft 158 kts 342°
2026-04-24 02:22 47.95662 16.64716 3347 ft 159 kts 344°
2026-04-24 02:22 47.96727 16.64256 3125 ft 160 kts 344°
2026-04-24 02:22 47.97762 16.63815 2907 ft 149 kts 345°
2026-04-24 02:23 47.98728 16.63407 2735 ft 141 kts 345°
2026-04-24 02:23 47.99661 16.63014 2532 ft 138 kts 345°
2026-04-24 02:23 48.00583 16.62625 2346 ft 137 kts 345°
2026-04-24 02:23 48.01501 16.62239 2156 ft 136 kts 345°
2026-04-24 02:24 48.02413 16.61855 1969 ft 136 kts 344°
2026-04-24 02:24 48.03321 16.61472 1777 ft 136 kts 344°
2026-04-24 02:24 48.04238 16.61086 1587 ft 138 kts 344°
2026-04-24 02:24 48.05156 16.60699 1395 ft 137 kts 343°
2026-04-24 02:25 48.06074 16.60311 1205 ft 137 kts 343°
2026-04-24 02:25 48.06988 16.59926 1023 ft 135 kts 342°
2026-04-24 02:25 48.07890 16.59545 833 ft 135 kts 342°
2026-04-24 02:25 48.08796 16.59164 674 ft 134 kts 342°
2026-04-24 02:26 48.09670 16.58794 616 ft 120 kts 342°
2026-04-24 02:26 48.10353 16.58504 614 ft 87 kts 344°
2026-04-24 02:26 48.10693 16.58322 616 ft 33 kts 323°
2026-04-24 02:26 48.10832 16.58126 610 ft 23 kts 316°
2026-04-24 02:27 48.10941 16.57986 616 ft 19 kts 330°
2026-04-24 02:27 48.11052 16.57923 618 ft 18 kts 343°
2026-04-24 02:27 48.11136 16.57783 612 ft 19 kts 295°
2026-04-24 02:27 48.11198 16.57599 610 ft 20 kts 295°
2026-04-24 02:28 48.11260 16.57402 615 ft 21 kts 296°
2026-04-24 02:28 48.11328 16.57198 619 ft 22 kts 295°
2026-04-24 02:28 48.11386 16.57020 609 ft 16 kts 296°
2026-04-24 02:28 48.11449 16.56882 614 ft 13 kts 336°
2026-04-24 02:29 48.11542 16.56916 610 ft 15 kts
2026-04-24 02:29 48.11607 16.56864 619 ft 9 kts 346°
2026-04-24 02:29 48.11664 16.56891 610 ft 2 kts 22°
2026-04-24 02:29 48.11671 16.56895 610 ft 1 kts 24°